Location: Lewisville
(33.0462°N, 96.9942°W)
Time: 10:16:29
(UTC-06:00)

Envisat - Pass Details

Date: 01 January 2020
Orbit: 764 x 766 km, 98.1° (Epoch: 19 February)

Event Time Altitude Azimuth Distance (km) Brightness Sun altitude
Rises 06:46:22 0° 18° (NNE) 3,236 6.2 -9.4°
Reaches altitude 10° 06:48:45 10° 23° (NNE) 2,306 5.5 -8.9°
Maximum altitude 06:53:42 52° 100° (E) 946 4.0 -7.9°
Drops below altitude 10° 06:58:37 10° 176° (S) 2,292 5.8 -7.0°
Sets 07:00:58 0° 181° (S) 3,214 6.5 -6.5°
